Location: Moydans
(44.3997°N, 5.5038°E)
Time: 17:04:09
(UTC+02:00)

Nauka - Pass Details

Date: 29 September 2021
Orbit: 417 x 423 km, 51.6° (Epoch: 26 October)

Event Time Altitude Azimuth Distance (km) Brightness Sun altitude
Rises 20:13:23 0° 298° (WNW) 2,363 ? -10.0°
Reaches altitude 10° 20:15:42 10° 311° (NW) 1,499 ? -10.4°
Maximum altitude 20:18:36 26° 11° (N) 862 ? -10.9°
Enters shadow 20:20:52 14° 64° (ENE) 1,290 ? -11.3°
